GW0980 Weather Reports


time (UTC)temp
C
wind
direction
speed
KPH
gust
KPH
rain 1hr
cm
rain 24hr
cm
rain mn
cm
humidity
%
barometer
mb
20260503194539 28 130 0.0 6.4 0.00 0.00 0.00 44 1010.8
20260503193055 27 145 0.0 8.0 0.00 0.00 0.00 45 1011.0
20260503191544 27 0 0.0 3.2 0.00 0.00 0.00 45 1011.1
20260503190053 26 172 0.0 4.8 0.00 0.00 0.00 49 1011.1
20260503184541 26 150 1.6 6.4 0.00 0.00 0.00 52 1011.3
20260503183054 25 0 0.0 4.8 0.00 0.00 0.00 54 1011.5
20260503181543 24 129 0.0 4.8 0.00 0.00 0.00 56 1011.6
20260503180054 23 105 3.2 8.0 0.00 0.00 0.00 55 1011.6
20260503174542 23 0 0.0 1.6 0.00 0.00 0.00 58 1011.6
20260503173103 22 94 0.0 3.2 0.00 0.00 0.00 61 1011.6
20260503171549 22 0 0.0 3.2 0.00 0.00 0.00 64 1011.7
20260503090240 11 307 0.0 1.6 0.00 0.00 0.00 93 1012.8
20260503081545 11 294 1.6 3.2 0.00 0.00 0.00 91 1012.9
20260503071548 12 0 0.0 0.0 0.00 0.00 0.00 89 1013.0
20260503054542 15 314 0.0 1.6 0.00 0.00 0.00 82 1012.9
20260503053037 15 294 1.6 3.2 0.00 0.00 0.00 79 1013.0
20260503051550 16 0 0.0 4.8 0.00 0.00 0.00 79 1013.2
20260503050144 16 302 0.0 4.8 0.00 0.00 0.00 78 1013.2
20260503050044 16 302 0.0 4.8 0.00 0.00 0.00 78 1013.2
20260503044541 16 0 0.0 0.0 0.00 0.00 0.00 77 1013.1
20260503043041 16 0 0.0 6.4 0.00 0.00 0.00 76 1013.0
20260503041541 17 292 1.6 6.4 0.00 0.00 0.00 75 1012.8
20260503040044 17 0 0.0 3.2 0.00 0.00 0.00 76 1012.6
20260503034540 17 310 0.0 6.4 0.00 0.00 0.00 76 1012.4
20260503033207 17 278 0.0 4.8 0.00 0.00 0.00 75 1012.3
20260503033046 17 278 0.0 4.8 0.00 0.00 0.00 75 1012.3
20260503031538 17 282 3.2 4.8 0.00 0.00 0.00 73 1012.1
20260503030156 18 0 0.0 1.6 0.00 0.00 0.00 71 1012.5
20260503030042 18 0 0.0 1.6 0.00 0.00 0.00 71 1012.5
20260503024546 18 0 0.0 1.6 0.00 0.00 0.00 70 1012.7
20260503023037 18 0 0.0 4.8 0.00 0.00 0.00 69 1012.8
20260503021633 19 80 0.0 6.4 0.00 0.00 0.00 68 1012.9
20260503021548 19 80 0.0 6.4 0.00 0.00 0.00 68 1012.9
20260503020050 20 58 0.0 4.8 0.00 0.00 0.00 67 1012.7
20260503014607 20 120 1.6 6.4 0.00 0.00 0.00 66 1012.3
20260503013040 21 0 0.0 4.8 0.00 0.00 0.00 64 1012.1
20260503011546 21 0 0.0 3.2 0.00 0.00 0.00 61 1012.2
20260503010050 21 0 0.0 1.6 0.00 0.00 0.00 59 1012.1
20260503004609 21 0 0.0 3.2 0.00 0.00 0.00 58 1012.1
20260503003038 21 0 0.0 3.2 0.00 0.00 0.00 59 1012.0
20260503001539 21 106 0.0 4.8 0.00 0.00 0.00 59 1011.8
20260503000136 21 146 1.6 4.8 0.00 0.00 0.00 58 1011.9
20260503000043 21 146 1.6 4.8 0.00 0.00 0.00 58 1011.9
20260502234543 21 0 0.0 1.6 0.00 0.00 0.00 58 1012.0
20260502233041 20 0 0.0 3.2 0.00 0.00 0.00 58 1012.4
20260502231542 20 39 0.0 3.2 0.00 0.00 0.00 58 1012.6
20260502230043 20 0 0.0 4.8 0.00 0.00 0.00 59 1012.9
20260502224538 20 146 0.0 6.4 0.00 0.00 0.00 60 1013.0
20260502223041 20 229 0.0 6.4 0.00 0.00 0.00 59 1013.2
20260502221545 20 0 0.0 3.2 0.00 0.00 0.00 59 1013.5
20260502220039 20 0 0.0 3.2 0.00 0.00 0.00 59 1013.7
20260502214544 18 79 0.0 3.2 0.00 0.00 0.00 60 1013.8
20260502213042 17 0 0.0 1.6 0.00 0.00 0.00 65 1013.9
20260502211620 16 0 0.0 1.6 0.00 0.00 0.00 67 1014.2
20260502210042 16 0 0.0 1.6 0.00 0.00 0.00 68 1014.4
20260502204540 16 270 0.0 1.6 0.00 0.00 0.00 67 1014.5
20260502203053 15 0 0.0 4.8 0.00 0.00 0.00 67 1014.7
20260502201543 14 305 3.2 6.4 0.00 0.00 0.00 68 1015.1
20260502200043 13 301 0.0 1.6 0.00 0.00 0.00 74 1015.5